Location: ????????
(55.1591°N, 39.1782°E)
Time: 08:52:12
(UTC+00:00)

Cosmos 1340 - Pass Details

Date: 14 April 2024
Orbit: 438 x 438 km, 81.2° (Epoch: 19 May)

Event Time Altitude Azimuth Distance (km) Brightness Sun altitude
Rises 01:18:45 0° 342° (NNW) 2,442 6.3 -9.0°
Reaches altitude 10° 01:20:51 10° 337° (NNW) 1,568 5.3 -8.7°
Maximum altitude 01:24:11 50° 261° (W) 570 2.5 -8.3°
Drops below altitude 10° 01:27:29 10° 185° (S) 1,560 4.8 -7.9°
Sets 01:29:34 0° 180° (S) 2,427 5.8 -7.6°
